Temperature
15 15 15 15 15 15 15 15 15 15 15 15 14 14 14 14 14 14 14 14 14 13 13 13 13 13 13 12 12 12 12 12 12 12 12 11 11 11 11 11 11 11 11
15 15 15 15 15 15 15 15 15 15 15 15 14 14 14 14 14 14 14 14 13 13 13 13 13 13 13 12 12 12 12 12 12 11 11 11 11 11 11 11 11 11 11
15 15 15 15 15 15 15 15 15 15 14 14 14 14 14 14 14 14 14 14 13 13 13 13 13 13 12 12 12 12 12 11 11 11 11 11 11 11 11 11 10 10 10
15 15 15 15 15 15 15 15 15 14 14 14 14 14 14 14 14 14 14 13 13 13 13 13 13 12 12 12 12 12 11 11 11 11 11 11 11 10 10 10 10 10 10
14 15 15 15 15 15 14 14 14 14 14 14 14 14 14 14 14 14 13 13 13 13 13 13 13 12 12 12 11 11 11 11 10 10 10 10 10 10 10 10 10 10 10
14 14 15 15 14 14 14 14 14 14 14 14 14 13 13 13 13 13 13 13 13 13 13 13 12 12 12 11 11 11 11 10 10 10 10 10 10 10 9 9 9 9 9
14 14 14 14 14 14 14 14 14 14 13 13 13 13 13 13 13 13 13 13 13 13 12 12 12 12 11 11 11 10 10 10 10 9 9 9 9 9 9 9 9 9 9
13 13 14 14 14 14 14 14 14 13 13 13 13 13 12 12 13 13 13 12 12 12 12 12 12 11 11 11 10 10 10 9 9 9 9 9 9 9 9 9 8 8 9
13 13 13 14 14 14 14 14 13 13 13 13 13 13 13 13 12 12 12 12 12 12 12 12 11 11 11 10 10 10 9 9 9 9 8 8 8 8 8 8 8 8 8
13 13 13 13 13 13 13 13 13 13 13 13 13 13 13 13 12 12 11 12 11 11 11 11 11 11 10 10 10 9 9 9 8 8 8 8 8 8 8 8 8 8 8
12 12 12 12 13 13 13 13 13 13 13 13 12 12 12 12 12 12 11 11 11 11 11 11 10 10 10 9 9 9 8 8 8 8 7 7 7 7 7 7 7 7 7
12 12 12 12 12 12 12 12 12 12 12 12 12 12 12 12 12 12 12 11 11 11 11 10 10 10 9 9 8 8 8 8 7 7 7 7 7 7 7 7 7 7 7
11 12 12 12 12 12 12 12 12 12 12 12 12 12 12 12 12 12 11 11 11 10 10 10 10 9 9 8 8 8 7 7 7 6 6 6 6 6 6 6 6 7 7
11 11 11 11 11 11 11 12 12 12 12 12 11 11 11 11 11 11 11 11 10 10 9 9 9 9 9 8 8 7 7 6 6 6 6 6 6 6 6 6 6 6 6
11 11 11 11 11 11 11 11 11 11 11 11 11 11 11 11 11 10 10 10 10 9 9 9 9 9 8 8 7 7 6 6 6 5 5 5 5 5 5 5 5 5 5
10 10 10 10 10 10 10 10 10 10 10 10 10 10 10 10 10 10 10 10 9 9 9 9 8 8 8 7 7 6 6 5 5 5 4 4 4 4 4 4 5 5 5
10 10 10 10 10 10 10 10 10 10 10 10 10 10 10 10 9 9 9 9 9 9 8 8 8 7 7 6 6 5 5 5 4 4 4 3 3 3 4 4 4 4 5
9 9 9 9 9 9 9 9 9 9 9 9 9 9 9 9 9 9 9 8 8 8 8 7 7 7 6 5 5 5 4 4 3 3 3 3 3 3 3 3 4 4 4
8 8 8 8 9 9 9 9 8 8 8 8 8 8 8 8 8 8 8 8 8 7 7 7 7 6 5 5 4 4 4 3 3 2 2 2 2 2 3 3 3 3 3
7 8 8 8 8 8 8 8 7 7 7 7 7 7 7 8 8 7 7 7 7 7 7 6 6 5 5 4 4 3 3 3 2 2 2 2 2 2 2 2 3 3 3
7 7 7 7 7 7 7 7 7 7 7 7 7 7 7 7 7 7 7 7 6 6 6 6 5 5 5 4 4 3 3 2 2 2 2 2 2 2 2 2 2 2 2
6 6 6 6 6 6 6 6 6 6 6 6 6 6 6 6 6 6 6 6 6 6 6 5 5 5 5 4 3 3 2 2 1 2 1 1 1 2 1 1 2 2 2
5 5 5 5 5 5 5 5 5 5 5 5 5 5 5 5 6 5 5 5 5 5 5 5 5 5 5 4 3 2 2 2 2 1 1 1 1 1 1 1 1 2 2
4 4 4 4 4 4 4 4 4 4 4 4 4 4 4 5 5 5 4 4 4 4 4 4 4 4 3 3 3 2 2 1 1 1 1 1 1 1 1 1 1 1 1
4 4 3 3 3 4 4 4 3 3 3 4 4 4 4 4 4 4 4 4 4 4 4 3 3 3 3 2 2 2 1 1 1 1 0 0 1 1 1 1 1 1 1
3 3 3 3 3 3 3 3 3 3 3 3 3 3 3 3 3 3 3 3 3 3 3 3 3 2 2 2 2 1 1 1 1 0 0 0 1 1 1 1 1 1 1
Wind_Speed
8 8 8 10 10 10 9 7 6 6 6 6 6 6 5 6 7 8 7 8 6 5 4 2 2 2 2 2 2 1 1 0 0 1 1 2 2 3 3 4 4 5 5
9 8 7 7 9 11 10 9 7 5 4 4 4 5 5 6 7 7 7 7 6 5 3 2 2 2 2 1 1 1 2 2 2 2 2 2 2 3 4 4 5 5 5
12 9 8 7 8 11 10 8 6 5 3 3 4 4 4 5 6 7 7 7 6 4 3 2 1 1 1 1 1 2 2 2 2 2 2 3 3 3 4 5 5 5 6
14 10 8 7 9 10 7 5 5 4 4 3 3 3 2 3 5 6 6 6 5 4 3 2 1 0 1 0 1 2 2 2 3 2 2 2 3 4 4 5 5 6 6
14 10 7 7 10 7 5 6 4 4 4 4 3 2 2 2 3 5 5 5 6 5 5 3 2 2 2 1 1 2 2 2 3 3 2 3 3 3 4 5 5 6 6
13 10 7 8 8 6 6 5 5 3 3 4 3 2 1 1 2 3 4 5 6 6 6 5 4 3 3 2 2 2 1 1 1 1 1 2 3 4 4 5 6 6 6
11 9 7 8 8 8 8 7 4 4 3 3 2 1 1 1 1 2 3 3 4 6 6 6 5 4 4 4 3 2 2 1 1 1 1 2 2 4 4 6 6 6 6
11 10 9 9 8 7 8 7 5 3 3 4 4 3 1 1 1 1 2 3 3 5 5 6 6 6 5 5 3 3 2 2 2 2 2 2 3 4 5 6 6 6 6
9 9 9 8 8 8 8 8 7 7 5 3 3 4 4 5 2 1 2 2 3 3 3 5 6 6 6 5 3 3 3 2 2 3 2 2 3 4 5 5 6 7 7
7 8 8 8 8 7 8 8 7 5 7 5 3 2 3 3 3 2 1 1 3 3 3 3 5 5 6 5 3 2 2 2 2 3 3 3 4 4 5 5 6 7 7
7 8 8 8 7 7 7 7 6 6 5 6 5 3 2 1 2 3 3 2 1 2 2 3 4 5 6 5 3 2 1 1 2 2 3 4 5 5 6 6 6 7 7
5 7 7 7 7 6 7 7 7 7 6 6 5 4 4 4 4 4 4 4 3 2 2 2 3 4 5 5 4 3 2 1 1 1 2 4 5 6 6 6 6 7 7
4 7 7 7 6 6 7 6 7 7 7 7 7 5 5 5 3 3 4 3 3 2 2 2 3 5 5 6 5 4 3 3 2 2 3 4 5 5 6 7 7 7 7
4 6 6 7 7 7 7 6 6 6 6 7 7 7 5 5 4 4 4 4 3 3 3 4 2 4 6 6 6 6 4 4 3 2 3 3 4 4 5 6 7 7 8
3 5 6 6 6 7 7 7 6 6 6 7 7 7 6 5 5 4 4 5 5 5 6 5 4 4 6 6 7 6 5 5 4 4 3 3 3 3 4 5 6 6 7
2 4 4 5 6 6 6 6 6 6 6 6 6 7 7 5 4 4 4 4 4 5 5 4 4 3 5 6 7 6 6 5 5 5 4 3 2 2 3 4 5 6 7
2 3 4 5 5 6 6 6 7 6 7 7 7 8 8 6 6 5 4 4 4 4 4 2 2 2 4 5 5 5 5 4 4 5 4 3 2 1 2 3 5 5 6
1 2 2 3 5 5 6 7 7 8 9 9 9 8 8 7 7 6 5 6 5 5 5 5 3 3 3 5 5 4 4 4 4 5 5 3 2 1 0 2 3 5 6
1 1 2 3 4 4 5 6 7 8 8 9 9 10 9 8 8 6 7 6 5 5 4 5 4 2 2 3 3 2 2 2 3 5 5 4 3 2 1 0 2 4 5
2 2 1 2 3 3 4 5 6 6 7 7 8 8 9 9 10 9 8 8 6 6 5 5 4 3 3 3 4 4 3 2 2 3 4 4 3 2 2 1 1 2 4
3 2 2 2 2 3 4 5 5 6 6 6 6 7 7 9 11 10 8 8 8 7 6 6 5 4 4 4 5 4 4 2 2 2 2 2 2 1 1 1 0 1 2
3 3 3 3 3 4 6 8 7 5 6 7 7 6 7 9 11 14 14 13 13 10 9 7 6 7 7 6 5 5 4 3 3 2 3 2 2 2 3 3 2 1 1
4 4 4 4 5 6 9 9 9 6 6 7 7 6 6 7 10 8 11 13 13 15 13 9 8 8 8 8 8 6 5 5 4 4 3 2 2 2 4 5 4 2 1
5 4 5 5 5 7 9 10 9 6 6 6 7 7 8 8 8 9 8 7 7 7 8 7 7 7 7 8 9 8 7 4 2 1 3 3 2 2 2 3 4 4 3
5 5 5 5 6 7 9 10 9 5 5 7 7 7 8 8 12 13 9 8 6 4 6 8 8 9 10 12 11 7 6 5 3 3 3 3 3 2 1 1 4 5 4
5 6 6 6 6 7 10 10 9 4 6 6 6 7 10 11 13 15 11 10 10 7 6 5 5 6 6 9 13 9 8 6 3 3 4 4 3 3 2 1 1 2 2
Wind_Direction
166 170 173 174 176 178 181 182 186 194 204 214 217 207 202 196 188 187 189 191 188 187 190 209 238 249 251 237 230 204 145 54 12 17 348 339 330 321 316 315 317 312 311
172 173 174 177 181 184 186 187 189 192 204 202 202 201 198 188 184 183 183 186 188 185 188 206 235 240 248 245 239 156 122 84 54 31 19 5 347 332 322 318 318 316 309
175 174 174 179 186 186 185 187 192 191 193 195 199 194 179 168 166 173 177 179 182 181 182 194 208 225 247 222 148 114 120 98 72 52 45 35 18 359 347 333 325 324 320
178 174 176 184 187 185 182 184 187 183 192 189 192 192 172 157 155 162 168 173 172 171 170 172 147 102 141 164 150 118 101 101 72 66 64 42 20 5 357 348 339 333 325
182 178 180 184 184 182 184 190 188 180 184 185 181 173 170 168 162 153 156 166 167 164 161 149 123 89 80 75 139 120 92 93 84 74 62 45 28 17 9 358 348 340 332
184 180 180 183 183 183 185 185 180 179 180 176 164 152 168 180 161 163 165 156 154 154 149 137 121 100 93 89 104 109 80 77 86 55 40 32 20 12 0 356 348 341 336
185 183 182 182 184 189 188 183 176 176 182 158 127 98 359 1 185 183 163 152 146 147 141 134 128 118 101 92 85 77 31 7 339 329 329 326 352 359 356 355 348 344 344
188 188 184 187 186 186 183 183 171 171 182 173 154 142 206 295 275 196 178 170 160 142 136 135 131 124 114 98 78 63 28 347 323 320 319 324 344 350 349 347 346 350 356
191 190 187 185 186 186 189 189 181 177 186 198 178 163 177 216 214 240 217 186 170 160 149 138 136 133 127 114 92 59 28 16 346 337 327 334 346 349 351 1 7 8 7
188 188 187 187 188 188 190 192 186 182 176 189 197 202 190 165 169 196 246 200 177 179 177 165 148 140 135 125 111 85 36 7 2 359 4 17 14 8 8 7 6 10 7
192 193 186 185 186 189 192 192 187 185 185 189 188 183 189 189 174 176 206 209 202 209 187 173 159 150 144 137 128 104 63 11 344 350 18 34 29 20 15 16 12 4 358
197 199 191 188 190 190 194 196 194 190 193 195 197 192 189 188 195 188 199 200 204 209 183 171 166 161 154 147 145 136 111 76 12 47 55 47 35 25 17 9 3 357 351
203 202 196 194 194 195 197 197 197 200 197 197 204 211 213 215 191 184 185 194 200 200 180 184 185 172 164 157 152 150 132 109 87 70 61 55 47 39 23 7 359 354 350
203 198 195 198 199 196 197 198 203 210 203 204 210 210 215 217 203 193 185 177 189 208 208 205 185 181 169 165 167 158 148 137 116 99 84 72 60 44 27 10 359 355 354
197 193 195 200 202 201 201 198 207 210 206 210 212 211 213 212 205 198 187 181 178 200 220 204 193 185 171 167 170 164 163 164 148 137 121 100 76 46 25 10 0 357 354
196 183 189 199 206 208 205 202 209 210 211 217 213 211 214 206 199 195 190 187 187 189 211 194 191 175 172 169 174 169 170 165 165 162 153 138 95 52 24 12 3 359 356
193 191 201 204 211 213 211 211 214 208 213 218 213 211 215 200 198 196 190 183 188 179 198 176 151 155 162 168 165 169 170 165 173 184 177 166 148 84 26 18 8 5 4
217 205 217 223 223 221 218 216 219 217 215 216 214 210 213 201 198 194 192 192 191 181 179 180 173 168 173 176 165 170 175 175 185 194 192 184 181 168 81 28 11 10 13
343 244 211 227 231 229 228 228 227 227 225 223 217 213 211 198 205 200 197 195 189 181 170 169 174 167 157 160 152 168 168 174 198 202 203 203 195 187 178 53 15 12 13
3 345 302 257 247 244 241 236 230 231 233 232 226 219 213 206 208 201 200 196 184 179 170 169 170 166 161 156 157 171 183 191 203 204 206 202 198 190 203 197 45 17 13
3 348 331 318 294 265 250 246 239 234 233 235 233 226 219 212 210 204 202 196 186 184 178 181 180 172 176 171 184 175 181 171 214 199 181 201 180 169 247 208 176 355 11
353 347 332 318 302 289 276 268 261 245 238 235 236 232 224 217 214 213 211 202 192 188 189 188 191 193 193 184 169 168 159 161 216 204 167 206 171 196 226 225 231 246 23
350 341 327 310 293 284 278 272 264 258 245 240 235 231 231 224 214 211 212 208 206 205 197 186 192 197 185 182 170 170 175 177 195 178 151 196 186 210 229 224 221 218 194
342 332 320 309 301 296 293 285 277 266 254 249 241 231 229 226 213 202 198 198 201 202 199 195 196 192 185 178 177 175 170 147 105 139 154 182 192 206 208 224 225 212 205
333 323 315 308 300 298 297 293 288 268 258 256 250 237 230 227 222 209 197 193 193 200 199 191 190 190 188 182 167 142 146 150 169 199 183 169 174 170 192 238 240 221 211
319 317 313 307 299 296 296 295 291 272 263 263 256 243 233 231 226 213 200 191 197 193 171 166 167 173 172 179 178 169 167 164 159 197 192 164 157 147 194 257 243 235 220
Height
1520 1524 1527 1530 1532 1535 1537 1540 1542 1543 1545 1546 1547 1548 1548 1549 1549 1549 1549 1549 1549 1548 1547 1546 1546 1545 1545 1544 1543 1543 1542 1541 1541 1540 1539 1538 1537 1536 1535 1534 1533 1532 1531
1518 1522 1525 1528 1530 1533 1536 1538 1540 1542 1543 1544 1545 1546 1547 1547 1547 1547 1547 1547 1547 1547 1546 1545 1544 1544 1543 1542 1542 1541 1540 1540 1539 1538 1537 1536 1535 1534 1533 1532 1531 1530 1530
1516 1519 1522 1525 1528 1531 1534 1536 1538 1540 1541 1542 1543 1544 1545 1545 1545 1545 1545 1545 1545 1545 1544 1543 1543 1542 1541 1541 1540 1539 1539 1538 1537 1536 1536 1535 1534 1533 1532 1530 1529 1529 1528
1514 1517 1520 1523 1526 1528 1531 1533 1535 1537 1539 1540 1541 1542 1542 1543 1543 1543 1543 1543 1543 1542 1542 1541 1541 1540 1540 1539 1538 1538 1537 1536 1536 1535 1534 1533 1532 1531 1530 1529 1527 1526 1525
1511 1514 1517 1520 1523 1525 1528 1530 1532 1534 1536 1537 1538 1539 1540 1540 1541 1541 1541 1541 1540 1540 1539 1539 1539 1538 1538 1537 1536 1536 1535 1535 1534 1533 1532 1531 1530 1529 1528 1527 1525 1524 1523
1507 1510 1514 1517 1520 1522 1525 1527 1529 1531 1533 1535 1536 1537 1537 1538 1538 1538 1538 1538 1537 1537 1537 1536 1536 1536 1535 1535 1534 1534 1533 1533 1532 1531 1530 1529 1528 1527 1526 1525 1523 1522 1521
1503 1507 1510 1513 1516 1518 1520 1523 1526 1528 1530 1532 1533 1534 1534 1535 1535 1535 1535 1535 1534 1534 1534 1534 1533 1533 1533 1532 1532 1531 1531 1530 1530 1529 1528 1527 1526 1525 1524 1522 1521 1520 1518
1499 1503 1505 1508 1511 1514 1516 1519 1522 1524 1526 1528 1529 1530 1530 1532 1531 1531 1531 1531 1531 1531 1531 1530 1530 1530 1530 1529 1529 1529 1528 1528 1527 1526 1525 1524 1523 1522 1521 1520 1519 1517 1516
1495 1498 1502 1504 1507 1510 1512 1514 1517 1519 1521 1523 1525 1526 1526 1525 1526 1527 1527 1527 1527 1527 1527 1527 1527 1526 1526 1526 1526 1525 1525 1525 1524 1523 1522 1521 1520 1519 1518 1517 1516 1515 1514
1491 1494 1497 1500 1502 1505 1508 1510 1512 1514 1516 1518 1519 1521 1522 1521 1522 1521 1522 1522 1523 1523 1523 1523 1523 1522 1522 1522 1522 1522 1521 1521 1520 1520 1519 1518 1517 1516 1515 1514 1513 1512 1511
1486 1490 1492 1495 1498 1501 1503 1505 1507 1509 1511 1513 1514 1515 1516 1517 1517 1517 1517 1517 1518 1518 1518 1518 1518 1518 1518 1518 1518 1518 1517 1517 1517 1516 1516 1515 1514 1513 1512 1511 1510 1509 1508
1482 1485 1488 1491 1493 1496 1498 1500 1502 1504 1506 1508 1509 1510 1511 1512 1511 1512 1511 1512 1513 1513 1513 1514 1514 1514 1514 1514 1514 1514 1513 1513 1513 1513 1512 1511 1510 1509 1509 1508 1506 1505 1504
1476 1479 1483 1485 1488 1491 1493 1495 1497 1499 1500 1502 1503 1505 1506 1507 1507 1507 1507 1507 1507 1508 1508 1508 1508 1509 1509 1510 1510 1510 1509 1509 1509 1509 1508 1507 1507 1506 1505 1504 1503 1501 1500
1472 1475 1477 1480 1483 1486 1488 1490 1492 1493 1495 1496 1497 1499 1500 1501 1502 1502 1503 1503 1502 1502 1502 1502 1503 1504 1505 1505 1505 1505 1505 1505 1505 1505 1504 1504 1503 1502 1501 1500 1499 1498 1496
1468 1470 1472 1475 1478 1481 1483 1484 1486 1487 1489 1490 1491 1492 1492 1494 1495 1495 1496 1497 1498 1496 1496 1497 1498 1498 1499 1500 1501 1500 1501 1501 1501 1500 1500 1500 1499 1498 1497 1496 1495 1494 1493
1464 1465 1467 1470 1473 1475 1477 1478 1479 1481 1482 1483 1484 1485 1485 1486 1488 1488 1489 1490 1491 1491 1491 1491 1492 1493 1494 1494 1495 1496 1496 1496 1496 1496 1496 1496 1495 1495 1494 1493 1492 1490 1490
1459 1461 1463 1465 1468 1469 1471 1472 1473 1473 1475 1476 1477 1478 1478 1479 1480 1481 1482 1482 1484 1485 1485 1485 1486 1488 1489 1489 1490 1491 1491 1491 1491 1492 1492 1492 1492 1491 1490 1489 1489 1488 1487
1456 1457 1458 1460 1462 1463 1464 1465 1466 1467 1468 1468 1469 1470 1471 1472 1472 1473 1474 1475 1477 1478 1479 1480 1481 1481 1483 1484 1485 1486 1486 1487 1487 1488 1488 1488 1488 1488 1487 1486 1486 1485 1484
1452 1453 1454 1456 1457 1457 1458 1459 1460 1460 1461 1461 1462 1462 1463 1464 1465 1466 1467 1468 1469 1471 1473 1474 1474 1476 1477 1478 1479 1481 1481 1482 1483 1484 1484 1484 1484 1484 1484 1483 1483 1482 1482
1449 1450 1450 1451 1451 1452 1452 1453 1453 1454 1454 1454 1455 1455 1456 1457 1458 1459 1461 1461 1463 1464 1466 1467 1468 1470 1471 1472 1474 1475 1476 1478 1479 1480 1481 1481 1481 1481 1480 1480 1480 1480 1479
1447 1447 1446 1446 1446 1447 1447 1447 1447 1447 1447 1447 1448 1448 1449 1450 1451 1453 1454 1455 1456 1457 1459 1460 1462 1463 1465 1466 1468 1470 1472 1473 1474 1475 1476 1477 1477 1477 1478 1478 1477 1477 1477
1444 1444 1443 1442 1442 1442 1442 1442 1441 1441 1441 1441 1441 1442 1442 1443 1445 1446 1447 1448 1450 1451 1452 1453 1455 1456 1458 1460 1463 1465 1466 1468 1469 1471 1472 1473 1473 1474 1475 1475 1475 1475 1475
1441 1440 1439 1439 1438 1437 1437 1436 1436 1435 1435 1435 1435 1435 1436 1436 1438 1439 1440 1441 1442 1444 1446 1447 1449 1451 1453 1455 1457 1459 1461 1462 1464 1467 1468 1468 1470 1470 1472 1472 1472 1473 1473
1438 1437 1436 1435 1434 1433 1432 1431 1430 1430 1429 1429 1429 1429 1429 1430 1431 1432 1433 1434 1436 1437 1439 1441 1443 1446 1448 1450 1452 1455 1456 1458 1460 1462 1464 1464 1465 1467 1468 1469 1469 1470 1471
1436 1434 1433 1431 1429 1428 1428 1427 1426 1424 1423 1423 1423 1423 1423 1424 1425 1426 1427 1428 1429 1431 1433 1435 1438 1440 1442 1444 1447 1449 1451 1453 1455 1457 1459 1460 1461 1463 1464 1465 1466 1468 1469
1433 1431 1429 1427 1425 1424 1423 1422 1420 1419 1418 1417 1416 1416 1417 1417 1418 1419 1420 1422 1423 1425 1427 1429 1432 1434 1436 1439 1441 1444 1447 1449 1450 1453 1454 1456 1457 1460 1461 1462 1463 1464 1466